,,,PA_Meas_PMT16A,,PR_Meas_QMR101_102,,RH_Meas_QMH101,,SR_Meas_QMS101,,TA_Meas_QMH101,,GenWind,,GenWind,
date,time,status,PA,status,PR,status,RH,status,SR,status,TA,status,DirAvg,status,SpdAvg,
2008-09-13, 00:00:04,VALID,1005.1,VALID,0,VALID,96.0781,VALID,0,VALID,23.7814,VALID,355,VALID,0.600781,
2008-09-13, 00:01:04,VALID,1005.13,VALID,0,VALID,96.0705,VALID,0,VALID,23.7619,VALID,354,VALID,0.423438,
2008-09-13, 00:02:04,VALID,1005.2,VALID,0,VALID,96.0552,VALID,0,VALID,23.7619,VALID,354,VALID,0.537109,
2008-09-13, 00:03:04,VALID,1005.24,VALID,0,VALID,96.0629,VALID,0,VALID,23.7832,VALID,354,VALID,0.378906,
2008-09-13, 00:04:04,VALID,1005.27,VALID,0,VALID,96.0705,VALID,0,VALID,23.7425,VALID,354,VALID,0.338281,
2008-09-13, 00:05:04,VALID,1005.27,VALID,0,VALID,96.0934,VALID,0,VALID,23.7619,VALID,350,VALID,0.466016,
2008-09-13, 00:06:04,VALID,1005.27,VALID,0,VALID,96.101,VALID,0,VALID,23.8027,VALID,293,VALID,0.539453,
2008-09-13, 00:07:04,VALID,1005.21,VALID,0,VALID,96.1468,VALID,0,VALID,23.8203,VALID,294,VALID,0.0933594,
2008-09-13, 00:08:04,VALID,1005.18,VALID,0,VALID,96.1697,VALID,0,VALID,23.8593,VALID,294,VALID,0.592969,
2008-09-13, 00:09:04,VALID,1005.17,VALID,0,VALID,96.1239,VALID,0,VALID,23.8787,VALID,294,VALID,0.0238281,
2008-09-13, 00:10:04,VALID,1005.17,VALID,0,VALID,96.1315,VALID,0,VALID,23.8982,VALID,294,VALID,0.117188,
2008-09-13, 00:11:04,VALID,1005.14,VALID,0,VALID,96.1544,VALID,0,VALID,23.9389,VALID,294,VALID,0.00507812,
2008-09-13, 00:12:04,VALID,1005.12,VALID,0,VALID,96.1163,VALID,0,VALID,23.9389,VALID,294,VALID,0.117969,
2008-09-13, 00:13:04,VALID,1005.13,VALID,0,VALID,96.1315,VALID,0,VALID,23.8982,VALID,294,VALID,0.284766,
2008-09-13, 00:14:04,VALID,1005.11,VALID,0,VALID,96.1315,VALID,0,VALID,23.9195,VALID,294,VALID,0.158203,
2008-09-13, 00:15:04,VALID,1005.07,VALID,0,VALID,96.0857,VALID,0,VALID,23.8593,VALID,294,VALID,0.229297,
2008-09-13, 00:16:04,VALID,1005.06,VALID,0,VALID,96.0476,VALID,0,VALID,23.8416,VALID,294,VALID,0.0660156,
2008-09-13, 00:17:04,VALID,1005.02,VALID,0,VALID,96.0857,VALID,0,VALID,23.8416,VALID,294,VALID,0.195703,
2008-09-13, 00:18:04,VALID,1005.02,VALID,0,VALID,96.0781,VALID,0,VALID,23.8398,VALID,294,VALID,0.228906,
2008-09-13, 00:19:04,VALID,1005.03,VALID,0,VALID,96.0857,VALID,0,VALID,23.8398,VALID,294,VALID,0.0914062,
2008-09-13, 00:20:04,VALID,1005.05,VALID,0,VALID,96.0934,VALID,0,VALID,23.8398,VALID,294,VALID,0,
2008-09-13, 00:21:04,VALID,1005.07,VALID,0,VALID,96.101,VALID,0,VALID,23.8398,VALID,294,VALID,0,
2008-09-13, 00:22:04,VALID,1005.1,VALID,0,VALID,96.0934,VALID,0,VALID,23.8805,VALID,294,VALID,0,
2008-09-13, 00:23:04,VALID,1005.11,VALID,0,VALID,96.0781,VALID,0,VALID,23.8787,VALID,294,VALID,0,
2008-09-13, 00:24:04,VALID,1005.15,VALID,0,VALID,96.0781,VALID,0,VALID,23.8805,VALID,294,VALID,0,
2008-09-13, 00:25:04,VALID,1005.15,VALID,0,VALID,96.0934,VALID,0,VALID,23.8398,VALID,294,VALID,0,
2008-09-13, 00:26:04,VALID,1005.13,VALID,0,VALID,96.0857,VALID,0,VALID,23.8593,VALID,294,VALID,0,
2008-09-13, 00:27:04,VALID,1005.12,VALID,0,VALID,96.1086,VALID,0,VALID,23.9,VALID,294,VALID,0,
2008-09-13, 00:28:04,VALID,1005.12,VALID,0,VALID,96.0857,VALID,0,VALID,23.8575,VALID,294,VALID,0.264844,
2008-09-13, 00:29:04,VALID,1005.08,VALID,0,VALID,96.101,VALID,0,VALID,23.8982,VALID,294,VALID,0.325391,
2008-09-13, 00:30:04,VALID,1005.06,VALID,0,VALID,96.0934,VALID,0,VALID,23.9177,VALID,294,VALID,0.139844,
2008-09-13, 00:31:04,VALID,1005.02,VALID,0,VALID,96.101,VALID,0,VALID,23.8982,VALID,94,VALID,0.493359,
2008-09-13, 00:32:04,VALID,1005.01,VALID,0,VALID,96.1086,VALID,0,VALID,23.8982,VALID,94,VALID,0.269922,
2008-09-13, 00:33:04,VALID,1004.98,VALID,0,VALID,96.101,VALID,0,VALID,23.8787,VALID,89,VALID,0.392578,
2008-09-13, 00:34:04,VALID,1004.99,VALID,0,VALID,96.0934,VALID,0,VALID,23.9195,VALID,89,VALID,0.302734,
2008-09-13, 00:35:04,VALID,1005.01,VALID,0,VALID,96.0934,VALID,0,VALID,23.8982,VALID,14,VALID,0.752734,
2008-09-13, 00:36:04,VALID,1005.05,VALID,0,VALID,96.162,VALID,0,VALID,23.9973,VALID,340,VALID,1.12695,
2008-09-13, 00:37:04,VALID,1005.09,VALID,0,VALID,96.1697,VALID,0,VALID,24.0752,VALID,320,VALID,1.15469,
2008-09-13, 00:38:04,VALID,1005.11,VALID,0,VALID,96.1773,VALID,0,VALID,24.1318,VALID,354,VALID,1.25039,
2008-09-13, 00:39:04,VALID,1005.12,VALID,0,VALID,96.1926,VALID,0,VALID,24.2115,VALID,11,VALID,2.17695,
2008-09-13, 00:40:04,VALID,1005.13,VALID,0,VALID,96.1315,VALID,0,VALID,24.1902,VALID,8,VALID,2.1793,
2008-09-13, 00:41:04,VALID,1005.12,VALID,0,VALID,96.0857,VALID,0,VALID,24.1494,VALID,29,VALID,1.76094,
2008-09-13, 00:42:04,VALID,1005.08,VALID,0,VALID,96.0171,VALID,0,VALID,24.1513,VALID,16,VALID,1.67734,
2008-09-13, 00:43:04,VALID,1005.12,VALID,0,VALID,95.9027,VALID,0,VALID,24.1707,VALID,9,VALID,2.06055,
2008-09-13, 00:44:04,VALID,1005.07,VALID,0,VALID,95.6128,VALID,0,VALID,24.1318,VALID,357,VALID,2.12148,
2008-09-13, 00:45:04,VALID,1005.03,VALID,0,VALID,94.9643,VALID,0,VALID,24.0734,VALID,35,VALID,2.75508,
2008-09-13, 00:46:04,VALID,1005.03,VALID,0,VALID,94.5905,VALID,0,VALID,24.015,VALID,15,VALID,2.12383,
2008-09-13, 00:47:04,VALID,1005.06,VALID,0,VALID,94.1785,VALID,0,VALID,24.0345,VALID,341,VALID,1.38867,
2008-09-13, 00:48:04,VALID,1005.09,VALID,0,VALID,93.9268,VALID,0,VALID,24.015,VALID,10,VALID,1.38672,
2008-09-13, 00:49:04,VALID,1005.07,VALID,0,VALID,93.5072,VALID,0,VALID,23.9761,VALID,12,VALID,2.15625,
2008-09-13, 00:50:04,VALID,1005.03,VALID,0,VALID,93.2631,VALID,0,VALID,23.9955,VALID,353,VALID,1.5082,
2008-09-13, 00:51:04,VALID,1005.05,VALID,0,VALID,93.1639,VALID,0,VALID,23.9761,VALID,25,VALID,1.84375,
2008-09-13, 00:52:04,VALID,1004.98,VALID,0,VALID,93.3928,VALID,0,VALID,23.9955,VALID,58,VALID,0.751953,
2008-09-13, 00:53:04,VALID,1004.95,VALID,0,VALID,93.3699,VALID,0,VALID,23.9955,VALID,20,VALID,1.23789,
2008-09-13, 00:54:04,VALID,1004.92,VALID,0,VALID,93.4309,VALID,0,VALID,23.9973,VALID,348,VALID,1.2957,
2008-09-13, 00:55:04,VALID,1004.84,VALID,0,VALID,93.3241,VALID,0,VALID,23.9371,VALID,334,VALID,1.08906,
2008-09-13, 00:56:04,VALID,1004.79,VALID,0,VALID,93.1563,VALID,0,VALID,23.8982,VALID,5,VALID,1.38984,
2008-09-13, 00:57:04,VALID,1004.73,VALID,0,VALID,92.9198,VALID,0,VALID,23.8805,VALID,343,VALID,1.23125,
2008-09-13, 00:58:04,VALID,1004.69,VALID,0,VALID,92.6528,VALID,0,VALID,23.8398,VALID,334,VALID,1.75156,
2008-09-13, 00:59:04,VALID,1004.67,VALID,0,VALID,92.4773,VALID,0,VALID,23.8203,VALID,343,VALID,1.14766,
2008-09-13, 01:00:04,VALID,1004.67,VALID,0,VALID,92.5002,VALID,0,VALID,23.8611,VALID,354,VALID,0.958984,
2008-09-13, 01:01:04,VALID,1004.65,VALID,0,VALID,92.7672,VALID,0,VALID,23.8611,VALID,7,VALID,0.338672,
2008-09-13, 01:02:04,VALID,1004.64,VALID,0,VALID,92.5917,VALID,0,VALID,23.8416,VALID,29,VALID,1.75586,
2008-09-13, 01:03:04,VALID,1004.64,VALID,0,VALID,92.5688,VALID,0,VALID,23.8398,VALID,36,VALID,1.21016,
2008-09-13, 01:04:04,VALID,1004.62,VALID,0,VALID,92.6833,VALID,0,VALID,23.8593,VALID,22,VALID,0.883594,
2008-09-13, 01:05:04,VALID,1004.63,VALID,0,VALID,92.6222,VALID,0,VALID,23.8805,VALID,23,VALID,0.884375,
2008-09-13, 01:06:04,VALID,1004.65,VALID,0,VALID,92.5231,VALID,0,VALID,23.9,VALID,20,VALID,1.17227,
2008-09-13, 01:07:04,VALID,1004.66,VALID,0,VALID,92.7443,VALID,0,VALID,23.8787,VALID,10,VALID,0.920313,
2008-09-13, 01:08:04,VALID,1004.65,VALID,0,VALID,92.8511,VALID,0,VALID,23.8593,VALID,354,VALID,0.412891,
2008-09-13, 01:09:04,VALID,1004.61,VALID,0,VALID,92.0577,VALID,0,VALID,23.8009,VALID,343,VALID,1.73672,
2008-09-13, 01:10:04,VALID,1004.58,VALID,0,VALID,91.6915,VALID,0,VALID,23.8416,VALID,359,VALID,2.28867,
2008-09-13, 01:11:04,VALID,1004.58,VALID,0,VALID,91.7373,VALID,0,VALID,23.8027,VALID,349,VALID,1.32383,
2008-09-13, 01:12:04,VALID,1004.57,VALID,0,VALID,91.6381,VALID,0,VALID,23.7832,VALID,348,VALID,1.61094,
2008-09-13, 01:13:04,VALID,1004.55,VALID,0,VALID,91.722,VALID,0,VALID,23.7443,VALID,348,VALID,1.55859,
2008-09-13, 01:14:04,VALID,1004.54,VALID,0,VALID,91.7144,VALID,0,VALID,23.7053,VALID,354,VALID,0.942187,
2008-09-13, 01:15:04,VALID,1004.55,VALID,0,VALID,91.7449,VALID,0,VALID,23.6664,VALID,353,VALID,1.16875,
2008-09-13, 01:16:04,VALID,1004.5,VALID,0,VALID,91.7297,VALID,0,VALID,23.6469,VALID,357,VALID,1.25547,
2008-09-13, 01:17:04,VALID,1004.49,VALID,0,VALID,91.5466,VALID,0,VALID,23.6469,VALID,351,VALID,1.36055,
2008-09-13, 01:18:04,VALID,1004.44,VALID,0,VALID,91.4321,VALID,0,VALID,23.6062,VALID,349,VALID,0.806641,
2008-09-13, 01:19:04,VALID,1004.42,VALID,0,VALID,91.4474,VALID,0,VALID,23.6275,VALID,288,VALID,0.657031,
2008-09-13, 01:20:04,VALID,1004.41,VALID,0,VALID,91.4245,VALID,0,VALID,23.6275,VALID,359,VALID,0.939062,
2008-09-13, 01:21:04,VALID,1004.36,VALID,0,VALID,91.1804,VALID,0,VALID,23.6275,VALID,344,VALID,1.29609,
2008-09-13, 01:22:04,VALID,1004.32,VALID,0,VALID,90.9591,VALID,0,VALID,23.6257,VALID,341,VALID,1.0875,
2008-09-13, 01:23:04,VALID,1004.23,VALID,0,VALID,90.8142,VALID,0,VALID,23.6257,VALID,353,VALID,1.30273,
2008-09-13, 01:24:04,VALID,1004.17,VALID,0,VALID,90.982,VALID,0,VALID,23.6664,VALID,331,VALID,0.597266,
2008-09-13, 01:25:04,VALID,1004.11,VALID,0,VALID,90.7608,VALID,0,VALID,23.6257,VALID,345,VALID,0.925391,
2008-09-13, 01:26:04,VALID,1004.07,VALID,0,VALID,90.593,VALID,0,VALID,23.6469,VALID,358,VALID,1.12656,
2008-09-13, 01:27:04,VALID,1004.03,VALID,0,VALID,90.5167,VALID,0,VALID,23.6664,VALID,345,VALID,0.741797,
2008-09-13, 01:28:04,VALID,1004.02,VALID,0,VALID,90.0818,VALID,0,VALID,23.6682,VALID,353,VALID,0.843359,
2008-09-13, 01:29:04,VALID,1004,VALID,0,VALID,90.0513,VALID,0,VALID,23.6664,VALID,356,VALID,0.738672,
2008-09-13, 01:30:04,VALID,1004.01,VALID,0,VALID,90.0894,VALID,0,VALID,23.6664,VALID,338,VALID,0.562109,
2008-09-13, 01:31:04,VALID,1003.99,VALID,0,VALID,90.0742,VALID,0,VALID,23.6664,VALID,346,VALID,1.0457,
2008-09-13, 01:32:04,VALID,1004.01,VALID,0,VALID,90.12,VALID,0,VALID,23.6062,VALID,329,VALID,0.317578,
2008-09-13, 01:33:04,VALID,1004.02,VALID,0,VALID,90.1963,VALID,0,VALID,23.608,VALID,312,VALID,0.08125,
2008-09-13, 01:34:04,VALID,1004.03,VALID,0,VALID,90.0055,VALID,0,VALID,23.5673,VALID,260,VALID,0.632422,
2008-09-13, 01:35:04,VALID,1004.06,VALID,0,VALID,90.0971,VALID,0,VALID,23.5885,VALID,273,VALID,0.286328,
2008-09-13, 01:36:04,VALID,1004.09,VALID,0,VALID,90.6769,VALID,0,VALID,23.5673,VALID,199,VALID,0.715234,
2008-09-13, 01:37:04,VALID,1004.12,VALID,0,VALID,90.6998,VALID,0,VALID,23.5514,VALID,199,VALID,0.741797,
2008-09-13, 01:38:04,VALID,1004.18,VALID,0,VALID,91.0278,VALID,0,VALID,23.4718,VALID,199,VALID,0.591406,
2008-09-13, 01:39:04,VALID,1004.21,VALID,0,VALID,91.2872,VALID,0,VALID,23.4328,VALID,195,VALID,0.536328,
2008-09-13, 01:40:04,VALID,1004.24,VALID,0,VALID,91.7297,VALID,0,VALID,23.4116,VALID,183,VALID,0.569922,
2008-09-13, 01:41:04,VALID,1004.24,VALID,0,VALID,92.2255,VALID,0,VALID,23.3921,VALID,181,VALID,0.407422,
2008-09-13, 01:42:04,VALID,1004.27,VALID,0,VALID,92.4163,VALID,0,VALID,23.3532,VALID,181,VALID,0.364062,
2008-09-13, 01:43:04,VALID,1004.26,VALID,0,VALID,92.5231,VALID,0,VALID,23.3143,VALID,92,VALID,0.666406,
2008-09-13, 01:44:04,VALID,1004.29,VALID,0,VALID,92.7062,VALID,0,VALID,23.2347,VALID,69,VALID,0.544922,
2008-09-13, 01:45:04,VALID,1004.27,VALID,0,VALID,92.8664,VALID,0,VALID,23.1957,VALID,44,VALID,0.560547,
2008-09-13, 01:46:04,VALID,1004.25,VALID,0,VALID,93.1334,VALID,0,VALID,23.178,VALID,44,VALID,0.447656,
2008-09-13, 01:47:04,VALID,1004.24,VALID,0,VALID,93.3241,VALID,0,VALID,23.1586,VALID,44,VALID,0.4375,
2008-09-13, 01:48:04,VALID,1004.2,VALID,0,VALID,93.4538,VALID,0,VALID,23.1179,VALID,44,VALID,0.302344,
2008-09-13, 01:49:04,VALID,1004.18,VALID,0,VALID,93.553,VALID,0,VALID,23.1197,VALID,44,VALID,0.219922,
2008-09-13, 01:50:04,VALID,1004.16,VALID,0,VALID,93.6903,VALID,0,VALID,23.1002,VALID,44,VALID,0.00898437,
2008-09-13, 01:51:04,VALID,1004.17,VALID,0,VALID,93.7666,VALID,0,VALID,23.1002,VALID,44,VALID,0.0289063,
2008-09-13, 01:52:04,VALID,1004.15,VALID,0,VALID,93.8963,VALID,0,VALID,23.0595,VALID,44,VALID,0,
2008-09-13, 01:53:04,VALID,1004.15,VALID,0,VALID,93.9954,VALID,0,VALID,23.0595,VALID,44,VALID,0,
2008-09-13, 01:54:04,VALID,1004.18,VALID,0,VALID,94.0031,VALID,0,VALID,23.0825,VALID,44,VALID,0,
2008-09-13, 01:55:04,VALID,1004.16,VALID,0,VALID,94.0107,VALID,0,VALID,23.0418,VALID,44,VALID,0,
2008-09-13, 01:56:04,VALID,1004.15,VALID,0,VALID,94.0565,VALID,0,VALID,23.0436,VALID,44,VALID,0,
2008-09-13, 01:57:04,VALID,1004.12,VALID,0,VALID,94.1175,VALID,0,VALID,23.0436,VALID,44,VALID,0,
2008-09-13, 01:58:04,VALID,1004.13,VALID,0,VALID,94.1404,VALID,0,VALID,23.0224,VALID,44,VALID,0,
2008-09-13, 01:59:04,VALID,1004.09,VALID,0,VALID,94.2319,VALID,0,VALID,23.0224,VALID,44,VALID,0,
2008-09-13, 02:00:04,VALID,1004.12,VALID,0,VALID,94.293,VALID,0,VALID,23.0012,VALID,44,VALID,0,
2008-09-13, 02:01:04,VALID,1004.08,VALID,0,VALID,94.3311,VALID,0,VALID,23.0418,VALID,44,VALID,0.379687,
2008-09-13, 02:02:04,VALID,1004.06,VALID,0,VALID,94.3616,VALID,0,VALID,23.0825,VALID,44,VALID,0.538672,
2008-09-13, 02:03:04,VALID,1004.04,VALID,0,VALID,94.3311,VALID,0,VALID,23.0401,VALID,39,VALID,0.476172,
2008-09-13, 02:04:04,VALID,1003.99,VALID,0,VALID,94.3158,VALID,0,VALID,23.0825,VALID,39,VALID,0.354688,
2008-09-13, 02:05:04,VALID,1003.97,VALID,0,VALID,94.3006,VALID,0,VALID,23.0418,VALID,38,VALID,0.560156,
2008-09-13, 02:06:04,VALID,1003.95,VALID,0,VALID,94.2777,VALID,0,VALID,23.0029,VALID,37,VALID,0.344531,
2008-09-13, 02:07:04,VALID,1003.94,VALID,0,VALID,94.3082,VALID,0,VALID,22.964,VALID,37,VALID,0,
2008-09-13, 02:08:04,VALID,1003.94,VALID,0,VALID,94.3311,VALID,0,VALID,22.964,VALID,37,VALID,0,
2008-09-13, 02:09:04,VALID,1003.89,VALID,0,VALID,94.354,VALID,0,VALID,22.9445,VALID,37,VALID,0,
2008-09-13, 02:10:04,VALID,1003.85,VALID,0,VALID,94.4303,VALID,0,VALID,22.9445,VALID,37,VALID,0,
2008-09-13, 02:11:04,VALID,1003.84,VALID,0,VALID,94.4837,VALID,0,VALID,22.9251,VALID,37,VALID,0,
2008-09-13, 02:12:04,VALID,1003.85,VALID,0,VALID,94.4837,VALID,0,VALID,22.9251,VALID,37,VALID,0,
2008-09-13, 02:13:04,VALID,1003.84,VALID,0,VALID,94.4913,VALID,0,VALID,22.9251,VALID,37,VALID,0,
2008-09-13, 02:14:04,VALID,1003.86,VALID,0,VALID,94.5447,VALID,0,VALID,22.8844,VALID,37,VALID,0,
2008-09-13, 02:15:04,VALID,1003.84,VALID,0,VALID,94.6439,VALID,0,VALID,22.9056,VALID,37,VALID,0,
2008-09-13, 02:16:04,VALID,1003.85,VALID,0,VALID,94.7583,VALID,0,VALID,22.9445,VALID,37,VALID,0.419531,
2008-09-13, 02:17:04,VALID,1003.83,VALID,0,VALID,94.8499,VALID,0,VALID,22.9834,VALID,37,VALID,0.509766,
2008-09-13, 02:18:04,VALID,1003.83,VALID,0,VALID,94.9185,VALID,0,VALID,23.0436,VALID,37,VALID,0.443359,
2008-09-13, 02:19:04,VALID,1003.83,VALID,0,VALID,94.8804,VALID,0,VALID,23.0224,VALID,87,VALID,0.600781,
2008-09-13, 02:20:04,VALID,1003.79,VALID,0,VALID,94.8041,VALID,0,VALID,23.0029,VALID,147,VALID,0.614062,
2008-09-13, 02:21:04,VALID,1003.77,VALID,0,VALID,94.6286,VALID,0,VALID,22.964,VALID,147,VALID,0.369922,
2008-09-13, 02:22:04,VALID,1003.73,VALID,0,VALID,94.682,VALID,0,VALID,22.9445,VALID,147,VALID,0,
2008-09-13, 02:23:04,VALID,1003.72,VALID,0,VALID,94.7583,VALID,0,VALID,22.9834,VALID,147,VALID,0,
2008-09-13, 02:24:04,VALID,1003.72,VALID,0,VALID,94.7431,VALID,0,VALID,22.964,VALID,147,VALID,0,
2008-09-13, 02:25:04,VALID,1003.71,VALID,0,VALID,94.7202,VALID,0,VALID,22.9445,VALID,147,VALID,0,
2008-09-13, 02:26:04,VALID,1003.71,VALID,0,VALID,94.6897,VALID,0,VALID,22.9251,VALID,147,VALID,0.114844,
2008-09-13, 02:27:04,VALID,1003.73,VALID,0,VALID,94.6897,VALID,0,VALID,22.9056,VALID,147,VALID,0,
2008-09-13, 02:28:04,VALID,1003.75,VALID,0,VALID,94.7125,VALID,0,VALID,22.9073,VALID,147,VALID,0,
2008-09-13, 02:29:04,VALID,1003.71,VALID,0,VALID,94.7278,VALID,0,VALID,22.8667,VALID,147,VALID,0.230859,
2008-09-13, 02:30:04,VALID,1003.72,VALID,0,VALID,94.827,VALID,0,VALID,22.8667,VALID,147,VALID,0,
2008-09-13, 02:31:04,VALID,1003.75,VALID,0,VALID,94.8804,VALID,0.100563,VALID,22.8667,VALID,147,VALID,0,
2008-09-13, 02:32:04,VALID,1003.74,VALID,0,VALID,94.8956,VALID,0,VALID,22.8861,VALID,147,VALID,0,
2008-09-13, 02:33:04,VALID,1003.8,VALID,0,VALID,94.9872,VALID,0,VALID,22.9056,VALID,147,VALID,0,
2008-09-13, 02:34:04,VALID,1003.8,VALID,0,VALID,94.9948,VALID,0.100563,VALID,22.9251,VALID,147,VALID,0,
2008-09-13, 02:35:04,VALID,1003.84,VALID,0,VALID,95.0024,VALID,0,VALID,22.9445,VALID,147,VALID,0,
2008-09-13, 02:36:04,VALID,1003.82,VALID,0,VALID,94.9948,VALID,0,VALID,22.9445,VALID,146,VALID,0.255469,
2008-09-13, 02:37:04,VALID,1003.86,VALID,0,VALID,94.9109,VALID,0,VALID,22.9056,VALID,97,VALID,0.473047,
2008-09-13, 02:38:04,VALID,1003.9,VALID,0,VALID,94.8651,VALID,0,VALID,22.8667,VALID,78,VALID,0.421484,
2008-09-13, 02:39:04,VALID,1003.89,VALID,0,VALID,94.9033,VALID,0,VALID,22.8472,VALID,78,VALID,0.158594,
2008-09-13, 02:40:04,VALID,1003.88,VALID,0,VALID,94.9262,VALID,0,VALID,22.8472,VALID,78,VALID,0,
2008-09-13, 02:41:04,VALID,1003.88,VALID,0,VALID,94.9338,VALID,0,VALID,22.826,VALID,78,VALID,0.202344,
2008-09-13, 02:42:04,VALID,1003.89,VALID,0,VALID,94.9567,VALID,0,VALID,22.8684,VALID,78,VALID,0,
2008-09-13, 02:43:04,VALID,1003.9,VALID,0,VALID,95.0177,VALID,0,VALID,22.8472,VALID,78,VALID,0.289063,
2008-09-13, 02:44:04,VALID,1003.9,VALID,0,VALID,95.0101,VALID,0,VALID,22.8472,VALID,78,VALID,0.365234,
2008-09-13, 02:45:04,VALID,1003.91,VALID,0,VALID,95.0024,VALID,0,VALID,22.8684,VALID,78,VALID,0.382813,
2008-09-13, 02:46:04,VALID,1003.88,VALID,0,VALID,95.0101,VALID,0,VALID,22.8472,VALID,78,VALID,0.41875,
2008-09-13, 02:47:04,VALID,1003.86,VALID,0,VALID,94.9643,VALID,0,VALID,22.8472,VALID,77,VALID,0.55625,
2008-09-13, 02:48:04,VALID,1003.86,VALID,0,VALID,94.888,VALID,0,VALID,22.8472,VALID,77,VALID,0.459375,
2008-09-13, 02:49:04,VALID,1003.86,VALID,0,VALID,94.9414,VALID,0,VALID,22.8667,VALID,76,VALID,0.43125,
2008-09-13, 02:50:04,VALID,1003.85,VALID,0,VALID,94.9338,VALID,0,VALID,22.8861,VALID,50,VALID,0.594922,
2008-09-13, 02:51:04,VALID,1003.82,VALID,0,VALID,94.9185,VALID,0,VALID,22.8861,VALID,49,VALID,0.447656,
2008-09-13, 02:52:04,VALID,1003.79,VALID,0,VALID,95.0558,VALID,0,VALID,22.8861,VALID,46,VALID,0.478906,
2008-09-13, 02:53:04,VALID,1003.8,VALID,0,VALID,95.0253,VALID,0,VALID,22.8861,VALID,15,VALID,0.703516,
2008-09-13, 02:54:04,VALID,1003.71,VALID,0,VALID,95.0024,VALID,0,VALID,22.8861,VALID,360,VALID,0.721484,
2008-09-13, 02:55:04,VALID,1003.72,VALID,0,VALID,94.9567,VALID,0,VALID,22.8649,VALID,358,VALID,0.798437,
2008-09-13, 02:56:04,VALID,1003.68,VALID,0,VALID,94.9643,VALID,0,VALID,22.8667,VALID,351,VALID,0.875391,
2008-09-13, 02:57:04,VALID,1003.64,VALID,0,VALID,94.9948,VALID,0,VALID,22.8667,VALID,351,VALID,0.657031,
2008-09-13, 02:58:04,VALID,1003.61,VALID,0,VALID,95.0558,VALID,0,VALID,22.8861,VALID,355,VALID,0.713672,
2008-09-13, 02:59:04,VALID,1003.58,VALID,0,VALID,95.0711,VALID,0,VALID,22.8861,VALID,4,VALID,0.392188,
2008-09-13, 03:00:04,VALID,1003.57,VALID,0,VALID,95.1093,VALID,0,VALID,22.9056,VALID,4,VALID,0.469531,
2008-09-13, 03:01:04,VALID,1003.55,VALID,0,VALID,95.1474,VALID,0,VALID,22.9251,VALID,4,VALID,0.41875,
2008-09-13, 03:02:04,VALID,1003.59,VALID,0,VALID,95.1474,VALID,0,VALID,22.9251,VALID,4,VALID,0.280469,
2008-09-13, 03:03:04,VALID,1003.58,VALID,0,VALID,95.1245,VALID,0,VALID,22.9445,VALID,4,VALID,0.267969,
2008-09-13, 03:04:04,VALID,1003.6,VALID,0,VALID,95.0864,VALID,0,VALID,22.9445,VALID,4,VALID,0.188281,
2008-09-13, 03:05:04,VALID,1003.63,VALID,0,VALID,95.1321,VALID,0,VALID,22.9445,VALID,4,VALID,0,
2008-09-13, 03:06:04,VALID,1003.65,VALID,0,VALID,95.033,VALID,0,VALID,22.9251,VALID,5,VALID,0.242969,
2008-09-13, 03:07:04,VALID,1003.66,VALID,0,VALID,94.9719,VALID,0,VALID,22.9056,VALID,68,VALID,0.658594,
2008-09-13, 03:08:04,VALID,1003.67,VALID,0,VALID,94.9109,VALID,0,VALID,22.8861,VALID,68,VALID,0.422266,
2008-09-13, 03:09:04,VALID,1003.69,VALID,0,VALID,94.8956,VALID,0,VALID,22.8649,VALID,68,VALID,0.185937,
2008-09-13, 03:10:04,VALID,1003.65,VALID,0,VALID,94.8575,VALID,0,VALID,22.8861,VALID,67,VALID,0.157813,
2008-09-13, 03:11:04,VALID,1003.65,VALID,0,VALID,94.827,VALID,0,VALID,22.9056,VALID,67,VALID,0,
2008-09-13, 03:12:04,VALID,1003.62,VALID,0,VALID,94.7583,VALID,0,VALID,22.8861,VALID,67,VALID,0.114453,
2008-09-13, 03:13:04,VALID,1003.61,VALID,0,VALID,94.682,VALID,0,VALID,22.8667,VALID,67,VALID,0.157813,
2008-09-13, 03:14:04,VALID,1003.59,VALID,0,VALID,94.6744,VALID,0,VALID,22.8861,VALID,67,VALID,0.0425781,
2008-09-13, 03:15:04,VALID,1003.54,VALID,0,VALID,94.6286,VALID,0,VALID,22.8649,VALID,67,VALID,0.261719,
2008-09-13, 03:16:04,VALID,1003.55,VALID,0,VALID,94.5905,VALID,0,VALID,22.8861,VALID,67,VALID,0.109766,
2008-09-13, 03:17:04,VALID,1003.53,VALID,0,VALID,94.5447,VALID,0,VALID,22.9073,VALID,66,VALID,0.439063,
2008-09-13, 03:18:04,VALID,1003.49,VALID,0,VALID,94.5295,VALID,0,VALID,22.8861,VALID,65,VALID,0.166016,
2008-09-13, 03:19:04,VALID,1003.47,VALID,0,VALID,94.5676,VALID,0,VALID,22.8861,VALID,65,VALID,0,
2008-09-13, 03:20:04,VALID,1003.46,VALID,0,VALID,94.5752,VALID,0,VALID,22.9056,VALID,65,VALID,0,
2008-09-13, 03:21:04,VALID,1003.46,VALID,0,VALID,94.5981,VALID,0,VALID,22.9251,VALID,61,VALID,0.126563,
2008-09-13, 03:22:04,VALID,1003.48,VALID,0,VALID,94.5676,VALID,0,VALID,22.9251,VALID,61,VALID,0.327344,
2008-09-13, 03:23:04,VALID,1003.54,VALID,0,VALID,94.5218,VALID,0,VALID,22.9251,VALID,61,VALID,0.4,
2008-09-13, 03:24:04,VALID,1003.55,VALID,0,VALID,94.4837,VALID,0,VALID,22.9251,VALID,61,VALID,0.423438,
2008-09-13, 03:25:04,VALID,1003.58,VALID,0,VALID,94.415,VALID,0,VALID,22.9251,VALID,61,VALID,0.408984,
2008-09-13, 03:26:04,VALID,1003.61,VALID,0,VALID,94.3921,VALID,0,VALID,22.9445,VALID,61,VALID,0.23125,
2008-09-13, 03:27:04,VALID,1003.65,VALID,0,VALID,94.3158,VALID,0,VALID,22.9251,VALID,61,VALID,0.0789063,
2008-09-13, 03:28:04,VALID,1003.63,VALID,0,VALID,94.2701,VALID,0,VALID,22.964,VALID,61,VALID,0.173047,
2008-09-13, 03:29:04,VALID,1003.65,VALID,0,VALID,94.2624,VALID,0,VALID,22.9657,VALID,61,VALID,0.13125,
2008-09-13, 03:30:04,VALID,1003.62,VALID,0,VALID,94.2472,VALID,0,VALID,22.964,VALID,61,VALID,0,
2008-09-13, 03:31:04,VALID,1003.62,VALID,0,VALID,94.1785,VALID,0,VALID,22.9445,VALID,61,VALID,0,
2008-09-13, 03:32:04,VALID,1003.64,VALID,0,VALID,94.1709,VALID,0,VALID,22.9251,VALID,61,VALID,0.244141,
2008-09-13, 03:33:04,VALID,1003.66,VALID,0,VALID,94.2319,VALID,0,VALID,22.9445,VALID,61,VALID,0,
2008-09-13, 03:34:04,VALID,1003.68,VALID,0,VALID,94.3082,VALID,0,VALID,22.9445,VALID,61,VALID,0,
2008-09-13, 03:35:04,VALID,1003.76,VALID,0,VALID,94.3464,VALID,0,VALID,22.964,VALID,61,VALID,0.053125,
2008-09-13, 03:36:04,VALID,1003.74,VALID,0,VALID,94.415,VALID,0,VALID,22.9834,VALID,61,VALID,0.345703,
2008-09-13, 03:37:04,VALID,1003.78,VALID,0,VALID,94.4074,VALID,0,VALID,22.9834,VALID,61,VALID,0.0128906,
2008-09-13, 03:38:04,VALID,1003.8,VALID,0,VALID,94.3921,VALID,0,VALID,23.0046,VALID,61,VALID,0.246875,
2008-09-13, 03:39:04,VALID,1003.77,VALID,0,VALID,94.3921,VALID,0,VALID,23.0046,VALID,61,VALID,0.175,
2008-09-13, 03:40:04,VALID,1003.77,VALID,0,VALID,94.3311,VALID,0,VALID,22.9852,VALID,61,VALID,0.105859,
2008-09-13, 03:41:04,VALID,1003.73,VALID,0,VALID,94.3006,VALID,0,VALID,22.964,VALID,61,VALID,0,
2008-09-13, 03:42:04,VALID,1003.74,VALID,0,VALID,94.3387,VALID,0,VALID,22.9834,VALID,61,VALID,0,
2008-09-13, 03:43:04,VALID,1003.76,VALID,0,VALID,94.4684,VALID,0,VALID,23.0029,VALID,61,VALID,0.488672,
2008-09-13, 03:44:04,VALID,1003.76,VALID,0,VALID,94.2396,VALID,0,VALID,22.9445,VALID,40,VALID,0.908203,
2008-09-13, 03:45:04,VALID,1003.8,VALID,0,VALID,94.2777,VALID,0,VALID,22.9056,VALID,34,VALID,0.802734,
2008-09-13, 03:46:04,VALID,1003.79,VALID,0,VALID,94.4074,VALID,0,VALID,22.8667,VALID,15,VALID,0.815234,
2008-09-13, 03:47:04,VALID,1003.81,VALID,0,VALID,94.5295,VALID,0,VALID,22.8684,VALID,4,VALID,0.984375,
2008-09-13, 03:48:04,VALID,1003.82,VALID,0,VALID,94.6668,VALID,0,VALID,22.8667,VALID,357,VALID,0.827344,
2008-09-13, 03:49:04,VALID,1003.83,VALID,0,VALID,94.7965,VALID,0,VALID,22.8667,VALID,355,VALID,0.965234,